Flag for U.S.A. Weather past 2 weeks in Santa Barbara, California, U.S.A.

Now
66 °F

Clear.


Feels Like: 66 °F
Forecast: 61 / 80 °F
Wind: No wind

Location: Santa Barbara Municipal Airport

Current Time: Aug 31, 2014 at 2:09:21 AM

Latest Report: Aug 31, 2014 at 12:53 AM


Visibility: 9 mi

Pressure: 29.76 "Hg

Humidity: 84%

Dew point: 61 °F

Location of Santa BarbaraLocation

Historic Weather in Santa Barbara — Graph

°F

Santa Barbara temperature yesterday

Maximum temperature yesterday: 75 °F (at 2:53 PM)
Minimum temperature yesterday: 61 °F (at 2:53 AM)
Average temperature yesterday: 68 °F

Past Weeks' High & Low Weather Summary

 TemperatureHumidityPressure
High83 °F (Aug 27, 4:53 PM)100% (Aug 22, 8:00 AM)30.03 "Hg (Aug 22, 8:00 AM)
Low56 °F (Aug 25, 3:53 AM)33% (Aug 27, 4:53 PM)29.72 "Hg (Aug 30, 5:53 PM)
Average67 °F74%29.90 "Hg
* Reported Aug 16 12:53 AM — Aug 31 12:53 AM, Santa Barbara, Weather by CustomWeather, © 2014

Note: Actual official high and low records may vary slightly from our data, if they occured in-between our weather recording intervals... More about our weather records

Advertising

Santa Barbara weather history for previous 24 hours

 ConditionsComfort  
Time TempWeatherWind HumidityBarometerVisibility
12:53 AM
Aug 31
66 °FClear.No wind84%29.76 "Hg9 mi
11:53 PM
Aug 30
68 °FClear.No wind87%29.76 "Hg9 mi
10:53 PM69 °FClear.7 mph79%29.75 "Hg10 mi
9:53 PM70 °FClear.3 mph79%29.75 "Hg10 mi
8:53 PM68 °FClear.No wind82%29.74 "Hg10 mi
7:53 PM68 °FSunny.3 mph87%29.72 "Hg9 mi
6:53 PM70 °FSunny.5 mph81%29.72 "Hg9 mi
5:53 PM72 °FPassing clouds.6 mph76%29.72 "Hg9 mi
4:53 PM73 °FSunny.6 mph71%29.74 "Hg10 mi
3:53 PM75 °FSunny.7 mph64%29.76 "Hg10 mi
2:53 PM75 °FSunny.5 mph62%29.78 "Hg10 mi
1:53 PM74 °FSunny.6 mph67%29.81 "Hg10 mi
12:53 PM74 °FSunny.8 mph67%29.82 "Hg10 mi
11:53 AM72 °FScattered clouds.7 mph76%29.84 "Hg6 mi
10:53 AM71 °FSunny.9 mph76%29.84 "Hg8 mi
9:53 AM70 °FSunny.9 mph79%29.84 "Hg8 mi
8:53 AM69 °FSunny.10 mph81%29.83 "Hg7 mi
7:53 AM67 °FSunny.No wind79%29.83 "Hg10 mi
6:53 AM63 °FClear.No wind81%29.81 "Hg10 mi
5:53 AM62 °FClear.No wind83%29.80 "Hg10 mi
4:53 AM61 °FClear.No wind83%29.79 "Hg10 mi
3:53 AM61 °FClear.No wind83%29.78 "Hg10 mi
2:53 AM61 °FClear.No wind90%29.78 "Hg10 mi
Weather by CustomWeather, © 2014

See weather overviewHow to use our weather pages